Weather Service Report


413 
ASUS42 KFFC 301603
RWRGA 
WEATHER ROUNDUP FOR GEORGIA
NATIONAL WEATHER SERVICE PEACHTREE CITY GA
1200 PM EDT THU OCT 30 2014

NOTE: "FAIR" INDICATES FEW OR NO CLOUDS BELOW 12,000 FEET WITH NO
SIGNIFICANT WEATHER AND/OR OBSTRUCTIONS TO VISIBILITY. 

* = USE WITH CAUTION. THE STATIONS MARKED WITH AN ASTERISK MAY NOT
REPORT WEATHER SUCH AS PRECIPITATION, FOG, OR THUNDER AND ARE NOT 
QUALITY CONTROLLED BY NWS.

THE REMARK "TC" DENOTES TEMPERATURE READING IN DEGREES CELSIUS.

GAZ001>058-301700-
NORTH GEORGIA
  
CITY           SKY/WX    TMP DP  RH WIND       PRES   REMARKS
ATLANTA        MOSUNNY   62  39  42 N6        30.09S                  
ATHENS         SUNNY     63  39  41 NE7       30.08F                  
CHAMBLEE       SUNNY     62  38  40 CALM      30.09F                  
PEACHTREE CITY SUNNY     62  40  44 CALM      30.10S                  
ROME           SUNNY     58  43  57 NE3       30.11F                  
WEST ATLANTA   SUNNY     62  40  44 NE5       30.09F                  
GAINESVILLE    SUNNY     60  38  43 MISG      30.09F                  
CARTERSVILLE   SUNNY     57  45  64 CALM      30.12F                  

  
CITY           SKY/WX    TMP DP  RH WIND       PRES   REMARKS
DALTON*        SUNNY     59  41  51 NW8       30.11S                  
LAWRENCEVILLE* SUNNY     63  36  36 CALM      30.08F                  
MARIETTA       MOSUNNY   62  40  45 VRB3      30.09F                  
KENNESAW*      SUNNY     59  41  51 N7        30.12F                  
$$

GAZ059>098-102>109-301700-
CENTRAL GEORGIA
  
CITY           SKY/WX    TMP DP  RH WIND       PRES   REMARKS
AUGUSTA-BUSH   SUNNY     69  44  40 NE13      30.04S                  
AUGUSTA-DANIEL SUNNY     68  43  40 NE13G18   30.05S                  
COLUMBUS       SUNNY     64  38  38 NE6       30.08S                  
MACON          SUNNY     64  46  52 NE12      30.05F                  
ROBINS AFB     SUNNY     65  49  55 NE9       30.05F                  

  
CITY           SKY/WX    TMP DP  RH WIND       PRES   REMARKS
LAGRANGE*      SUNNY     64  47  53 NE8       30.10S                  
SYLVANIA*      SUNNY     73  58  58 E3        30.03S                  
MILLEDGEVILLE* SUNNY     64  46  52 NE7       30.06S                  
$$

GAZ099>101-110>166-301700-
SOUTH GEORGIA
  
CITY           SKY/WX    TMP DP  RH WIND       PRES   REMARKS
SAVANNAH       CLOUDY    70  59  68 N9        30.00S                  
VALDOSTA       CLOUDY    65  45  48 CALM      30.02F                  
ALMA           MOSUNNY   67  49  52 NW3       30.01S                  
ST SIMONS      SUNNY     75  61  61 NE5       29.98F                  
FT STEWART     CLOUDY    67  60  76 N6        29.99S                  
ALBANY         SUNNY     66  46  48 N7        30.07S                  
HUNTER AFB     PTSUNNY   70  62  76 N7        29.97S                  
MOODY AFB      CLOUDY    64  47  55 N3        30.02S                  
BRUNSWICK      SUNNY     73  61  64 CALM      29.99F                  

  
CITY           SKY/WX    TMP DP  RH WIND       PRES   REMARKS
BAINBRIDGE*    PTSUNNY   70  46  43 N5        30.05F                  
MOULTRIE*      MOSUNNY   63  50  63 CALM      30.05S                  
VIDALIA*       SUNNY     66  57  72 N5        30.02F                  
WAYCROSS*      CLOUDY    69  57  65 N6        30.01F                  
DOUGLAS*       SUNNY     68  48  49 CALM      30.03F                  
$$

Return to Home page


Western Regional Climate Center, wrcc@dri.edu